Hourly Weather Roundup
Issued by NWS Central Illinois

Home | Current Version | Previous Version | Text Only | Print | Product List | Glossary On
Versions: 1 2 3 4 5 6 7 8 9 10 11 12 13 14 15 16 17 18 19 20 21 22 23 24 25 26 27 28 29 30 31 32 33 34 35 36 37 38 39 40 41 42 43 44 45 46 47 48 49 50
353
NZUS43 KILX 171010
HWRILX

AREA WEATHER ROUNDUP
NATIONAL WEATHER SERVICE, LINCOLN IL
400 AM CST TUE JAN 17 2017


CITY           SKY/WX    TMP DP  RH WIND       PRES   REMARKS
BLOOMINGTON    CLOUDY    45  44  97 W17G25    29.83R
CHAMPAIGN      CLOUDY    50  47  89 W21G30    29.83R
DANVILLE       CLOUDY    52  50  94 W20G26    29.78R
DECATUR        CLOUDY    48  45  89 W10       29.86S
EFFINGHAM      CLOUDY    51  50  96 SW9       29.90R
FLORA          CLOUDY    54  49  85 W12G18    29.90R
GALESBURG      FOG       37  37 100 W8        29.84R VSB 1/2 WCI  31
JACKSONVILLE   CLOUDY    43  40  89 SW15      29.89R
LACON          CLOUDY    40  40 100 SW5       29.82S FOG
LAWRENCEVILLE  MOCLDY    58  57  97 SW14      29.87S
LITCHFIELD     CLOUDY    44  40  86 W16       29.91R
$$


CITY           SKY/WX    TMP DP  RH WIND       PRES   REMARKS
LINCOLN        CLOUDY    46  46  97 W9        29.86R
MACOMB         CLOUDY    40  40 100 W13       29.88S FOG     WCI  33
MATTOON        CLOUDY    50  46  86 W16       29.85S
MT CARMEL AP   PTCLDY    58  55  91 SW14G20   29.86S
OLNEY-NOBLE AP CLOUDY    52  52 100 W13       29.90R
PARIS          CLOUDY    52  51  95 W16       29.85R
PEORIA         CLOUDY    43  43 100 W10       29.85R FOG
PONTIAC        CLOUDY    45  45 100 W16       29.82R
RANTOUL        CLOUDY    49  49  97 W15G21    29.82R
SPRINGFIELD    CLOUDY    46  42  86 W16       29.88R
TAYLORVILLE    CLOUDY    46  42  87 W15       29.88S
$$

...REGIONAL REPORTS...


CITY           SKY/WX    TMP DP  RH WIND       PRES   REMARKS
CHICAGO O`HARE CLOUDY    38  38 100 NW5       29.72S WCI  34
KANKAKEE       CLOUDY    45  44  97 W14       29.78R
MOLINE         CLOUDY    35  34  96 W8        29.84R FOG     WCI  29
MOUNT STERLING CLOUDY    40  40  97 W12G17    29.88S WCI  34
MOUNT VERNON   CLOUDY    51  46  83 W9        29.92R
PITTSFIELD     CLOUDY    43  41  93 SW15      29.91S
QUINCY         CLOUDY    41  40  96 W10G21    29.89R WCI  35
ROCKFORD       CLOUDY    36  35  96 NW6       29.78F WCI  31
$$


CITY           SKY/WX    TMP DP  RH WIND       PRES   REMARKS
BURLINGTON     CLOUDY    37  37 100 W12       29.85S FOG     WCI  29
CEDAR RAPIDS   FOG       32  32 100 NW9       29.85R VSB 1/4 WCI  24
DES MOINES     CLOUDY    34  32  92 NW12      29.93R WCI  25
KIRKSVILLE       N/A     37  36  96 MISG      29.93R FOG
OTTUMWA        CLOUDY    34  34 100 W13       29.88R WCI  25
ST LOUIS       CLOUDY    46  38  73 W18       29.93R
$$


CITY           SKY/WX    TMP DP  RH WIND       PRES   REMARKS
TERRE HAUTE    LGT RAIN  54  51  90 W17G28    29.85R
EVANSVILLE     MOCLDY    59  56  89 SW10      29.90S
INDIANAPOLIS   CLOUDY    58  55  90 S17       29.81F
LAFAYETTE      LGT RAIN  56  55  97 W13       29.77F FOG
MADISON        LGT RAIN  33  33 100 N6        29.80F FOG     WCI  28
MILWAUKEE      FOG       37  35  92 N8        29.76F VSB 3/4 WCI  31
$$






USA.gov is the U.S. government's official web portal to all federal, state and local government web resources and services.